Погода в Боголюбово

Россия / Владимирская область     56°11′57″N   40°32′02″E
темп.,
°C
ветер,
м/с
пор.,
м/с
влажн.,
%
обл.,
%
осадки,
мм/ч
давл.,
гПа
погр.,
м
6 марта, сб
сб600:00−14ссз12861 0.0 101420
03:00−15зюз23830 0.0 101520
06:00−13зсз239678 0.1 101542
09:00−12зсз259578 0.1 1015145
12:00−9зсз349167 0.0 1015302
15:00−8зсз248879 0.0 1014421
18:00−11з229147 0.0 101421
21:00−12зюз238837 0.0 101321
7 марта, вс
вс700:00−13юз349421 0.0 101143
03:00−14ююз499311 0.0 1009158
06:00−10ююз6138871 0.0 1004421
09:00−8ююз8149185 0.2 1000768
12:00−5ююз81391100 1.0 995988
15:00−3ююз81394100 2.3 991979
18:00−3з81393100 1.6 989946
21:00−7з91676100 2.4 991864
8 марта, пн
пн800:00−10зюз6148479 0.0 993378
03:00−12зюз4109340 0.0 994208
06:00−14зюз36940 0.0 99387
09:00−12зсз39892 0.0 994276
12:00−9зсз588980 0.0 997635
15:00−7сз588990 0.2 1000846
18:00−9сз51191100 0.1 1003611
21:00−12сз4109489 0.1 1006294
9 марта, вт
вт900:00−14сз489689 0.0 1009205
03:00−17сз479787 0.1 1011155
06:00−21сз359971 0.0 1013109
09:00−20ссз479558 0.0 1015247
12:00−18сз469056 0.0 1016386
15:00−16сз478865 0.0 1017517
18:00−20сз379575 0.0 1018140
21:00−23ссз359644 0.0 1020121
10 марта, ср
ср1000:00−25сз349842 0.0 102173
03:00−27сз339933 0.0 102253
06:00−28ссз34987 0.0 102456
09:00−26ссз369614 0.0 1025205
12:00−22ссз359115 0.0 1025336
15:00−18сз358625 0.0 1025439
18:00−22сз34927 0.0 102646
21:00−23сз22894 0.0 102720